sat.trackr.live / text

‹ back to catalog

STARLINK-31340

NORAD 59170 · 2024-044U

PAYLOAD ACTIVE UNKNOWN

§ Identity

Operator
Country
US
Launch date
2024-03-04
Launch site
AFETR
Launch vehicle
Mass (kg)
RCS (m²)

Purposes: comms

External: N2YO · Heavens-Above · Gunter

§ Orbital elements

Epoch: 2026-05-24T14:34:27.953472Z

Period
94.26 min
Inclination
42.9997°
Eccentricity
0.0000960
Mean motion
15.27661639 rev/d
Perigee alt
482.1 km
Apogee alt
483.5 km
Semi-major
6,860.9 km
B*
6.3298e-4
RAAN
358.7327°
Arg perigee
271.6483°
Mean anomaly
88.4259°
Rev number
12,563

§ Raw data

STARLINK-313401 59170U 24044U   26144.60726798  .00017240  00000+0  63298-3 0  99922 59170  42.9997 358.7327 0000960 271.6483  88.4259 15.27661639125634

JSON: /api/v1/satellites/59170 · /tle

For live sub-satellite position, see the globe view (requires WebGL).

§ Visibility from observer

Set your observer location to see the next 7 days of passes ≥ 10°. The values pass through the URL so the page stays shareable.

No JS? Fill the form by hand. The geolocation button needs JavaScript.